Location: La Pernelle
(49.6188°N, 1.2999°W)
Time: 14:50:48
(UTC+00:00)

USA 267 - Pass Details

Date: 12 June 2021
Orbit: 1102 x 1106 km, 123.0° (Epoch: 24 July)

Event Time Altitude Azimuth Distance (km) Brightness Sun altitude
Exits shadow 21:37:21 - 107° (ESE) 3,587 5.5 -10.1°
Reaches altitude 10° 21:38:59 10° 105° (ESE) 2,959 5.1 -10.3°
Maximum altitude 21:45:27 69° 24° (NNE) 1,175 3.6 -10.8°
Drops below altitude 10° 21:51:58 10° 303° (WNW) 2,970 6.6 -11.4°
Sets 21:54:27 0° 301° (WNW) 3,930 7.3 -11.6°
